Location: New Canada
(47.1017°N, 68.5042°W)
Time: 05:40:50
(UTC+00:00)

AO-73 - Visible Passes

Search period start: 23 March 2023 00:00
Search period end: 02 April 2023 00:00
Orbit: 574 x 649 km, 97.7° (Epoch: 22 March)

Date Brightness Start Highest point End Pass type
(mag) Time Alt. Az. Time Alt. Az. Time Alt. Az.
23 Mar ? 07:27:08 10° NE 07:30:41 26° E 07:31:06 25° ESE visible
23 Mar ? 09:02:53 10° N 09:06:41 32° WNW 09:08:05 26° WSW visible
24 Mar ? 07:41:28 10° NNE 07:45:22 36° E 07:45:59 34° ESE visible
24 Mar ? 09:17:46 10° NNW 09:21:10 24° WNW 09:22:58 18° W visible
25 Mar ? 07:55:54 10° NNE 08:00:01 51° E 08:00:52 43° SE visible
25 Mar ? 09:32:46 10° NNW 09:35:36 18° WNW 09:37:51 12° W visible
26 Mar ? 08:10:25 10° NNE 08:14:38 74° ESE 08:15:43 47° S visible
26 Mar ? 09:48:01 10° NNW 09:50:00 13° WNW 09:51:58 10° W visible
27 Mar ? 06:51:41 10° ENE 06:52:39 11° E 06:53:35 10° E visible
27 Mar ? 08:25:00 10° N 08:29:12 78° WNW 08:30:35 41° SSW visible
28 Mar ? 07:04:55 10° NE 07:07:23 15° E 07:08:26 14° ESE visible
28 Mar ? 08:39:37 10° N 08:43:43 54° WNW 08:45:25 31° SW visible
29 Mar ? 07:18:52 10° NE 07:22:04 21° E 07:23:15 19° ESE visible
29 Mar ? 08:54:19 10° N 08:58:11 38° WNW 09:00:14 23° WSW visible
30 Mar ? 07:33:03 10° NNE 07:36:43 29° E 07:38:04 24° SE visible
30 Mar ? 09:09:04 10° N 09:12:37 28° WNW 09:15:03 16° WSW visible
31 Mar ? 07:47:22 10° NNE 07:51:19 41° E 07:52:52 29° SSE visible
31 Mar ? 09:23:55 10° NNW 09:27:01 20° WNW 09:29:52 11° WSW visible
01 Apr ? 08:01:46 10° NNE 08:05:53 60° E 08:07:40 31° S visible
01 Apr ? 09:38:57 10° NNW 09:41:22 15° WNW 09:43:45 10° W visible
